Find Starlink 4286

NORAD ID: 52990 Int'l Des: 2022-076 Owner: SPXS Country: US Constellation: starlink operational
LEOCIRCULAR

当前视图

正在加载3D地球...

About Starlink 4286

Starlink 4286 (NORAD 52990) is a starlink constellation satellite (v1.5) launched Jul 7, 2022 by SPXS of US. It operates in LEO, CIRCULAR orbit with a mass of 297.00 kg.

关于 Starlink 4286

正在加载描述...

即将过境

Passes for default location (London). Set your location on the main map for personalized predictions.

高度历史

Loading altitude history...

两行轨道根数

1 52990U 22076E 26173.83335648 .00051399 00000-0 24037-2 0 9996
2 52990 53.1615 351.7126 0000431 118.0214 201.9577 15.19293835 5785
Epoch: Jun 22, 2026 • Age: 16 hours

当前状态

高度 513.2 km
速度 7.61 km/s
星下点 -18.80°S, 115.57°W
发射日期 Jul 7, 2022
运行时间 3.9 years
类型 internet

技术详情

分类 Payload
质量 297.00 kg
干质量 275.00 kg
总质量 297.00 kg
长度 0.20 m
直径 2.80 m
跨度 9.00 m
形状 Box + pan
制造商 SPXS
平台类型 Starlink
阶段状态 In Orbit
所有者/国家 SPXS/US

Most Searched